Weather History for KMTJ - December, 2012

Change the Weather History Date:

Sunday, December 9, 2012

  Actual Average Record
Temperature  
Mean Temperature 22 °F 28 °F  
Max Temperature 33 °F 39 °F 50 °F (1996)
Min Temperature 11 °F 17 °F -8 °F (2013)
Degree Days  
Heating Degree Days 43 37  
Month to date heating degree days 226 323  
Since 1 July heating degree days 1368 1744  
Cooling Degree Days 0 0  
Month to date cooling degree days 0 0  
Year to date cooling degree days 906 643  
Moisture  
Dew Point 16 °F    
Average Humidity 69    
Maximum Humidity 100    
Minimum Humidity 37    
Precipitation  
Precipitation 0.03 in 0.02 in 0.08 in (1998)
Month to date precipitation 0.03 0.20  
Year to date precipitation 5.51 10.85  
Sea Level Pressure  
Sea Level Pressure 30.06 in    
Wind  
Wind Speed 10 mph (WNW)    
Max Wind Speed 26 mph    
Max Gust Speed 31 mph    
Visibility 6 miles    
Events Snow    
T = Trace of Precipitation, MM = Missing Value Source: NWS Daily Summary

Daily Weather History Graph

Daily Weather History Graph

Search for Another Location

Airport or City:

Trip Planner

Search our weather history database for the weather conditions in past years. The results will help you decide how hot, cold, wet, or windy it might be!

Date:

Astronomy

Dec. 09, 2012 Rise Set
Actual Time 7:17 AM MST 4:50 PM MST
Civil Twilight 6:48 AM MST 5:20 PM MST
Nautical Twilight 6:15 AM MST 5:53 PM MST
Astronomical Twilight 5:42 AM MST 6:25 PM MST
Moon 2:56 AM MST (12/9) 1:57 PM MST (12/9)
Length of Visible Light 10h 32m
Length of Day
9h 32m
Waning Crescent, 18% of the Moon is Illuminated
Dec 9
Waning Crescent
Dec 13
New
Dec 19
First Quarter
Dec 28
Full
Jan 4
Last Quarter

Hourly Weather History & Observations

Time (MST) Temp. Windchill Dew Point Humidity Pressure Visibility Wind Dir Wind Speed Gust Speed Precip Events Conditions
12:46 AM 30.2 °F 19.8 °F 26.6 °F 86% 29.92 in 2.5 mi NW 13.8 mph - 0.00 in Snow Light Snow
12:53 AM 28.9 °F 19.2 °F 26.1 °F 89% 29.86 in 1.8 mi NW 11.5 mph - 0.00 in Snow Light Snow
12:59 AM 28.4 °F 18.0 °F 26.6 °F 93% 29.92 in 1.5 mi NW 12.7 mph - 0.00 in Snow Light Snow
1:12 AM 28.4 °F 18.0 °F 26.6 °F 93% 29.93 in 1.2 mi NW 12.7 mph - 0.00 in Snow Light Snow
1:26 AM 28.4 °F 17.0 °F 26.6 °F 93% 29.93 in 0.8 mi WNW 15.0 mph - 0.00 in Snow Light Snow
1:42 AM 28.4 °F 19.1 °F 26.6 °F 93% 29.93 in 1.0 mi NW 10.4 mph - 0.00 in Snow Light Snow
1:53 AM 27.0 °F 16.7 °F 26.1 °F 96% 29.87 in 1.2 mi NW 11.5 mph - 0.01 in Snow Light Snow
2:28 AM 26.6 °F 18.2 °F 26.6 °F 100% 29.94 in 1.5 mi NW 8.1 mph - 0.00 in Snow Light Snow
2:38 AM 26.6 °F 20.0 °F 26.6 °F 100% 29.94 in 1.2 mi NW 5.8 mph - 0.00 in Snow Light Snow
2:53 AM 26.1 °F 14.5 °F 24.1 °F 92% 29.89 in 1.0 mi NW 13.8 mph - 0.01 in Snow Light Snow
3:07 AM 24.8 °F 15.3 °F 24.8 °F 100% 29.95 in 1.2 mi NW 9.2 mph - 0.00 in Snow Light Snow
3:14 AM 24.8 °F 17.9 °F 24.8 °F 100% 29.95 in 2.0 mi NW 5.8 mph - 0.00 in Snow Light Snow
3:33 AM 24.8 °F 19.1 °F 24.8 °F 100% 29.96 in 1.8 mi NW 4.6 mph - 0.00 in Snow Light Snow
3:42 AM 24.8 °F 16.9 °F 23.0 °F 93% 29.97 in 1.5 mi WNW 6.9 mph - 0.00 in Snow Light Snow
3:50 AM 24.8 °F 12.9 °F 21.2 °F 86% 29.97 in 1.5 mi NW 13.8 mph 17.3 mph 0.00 in Snow Light Snow
3:53 AM 24.1 °F 12.5 °F 21.0 °F 88% 29.93 in 1.5 mi WNW 12.7 mph - 0.00 in Snow Light Snow
4:29 AM 23.0 °F 13.1 °F 21.2 °F 93% 29.98 in 1.0 mi WNW 9.2 mph - 0.01 in Snow Light Snow
4:37 AM 23.0 °F 13.9 °F 21.2 °F 93% 29.98 in 1.5 mi West 8.1 mph - 0.01 in Snow Light Snow
4:42 AM 23.0 °F 14.7 °F 21.2 °F 93% 29.99 in 2.0 mi West 6.9 mph - 0.01 in Snow Light Snow
4:53 AM 23.0 °F 13.9 °F 21.0 °F 92% 29.97 in 4.0 mi West 8.1 mph - 0.01 in Snow Light Snow
5:17 AM 23.0 °F 11.1 °F 19.4 °F 86% 30.00 in 2.5 mi WNW 12.7 mph - 0.00 in Snow Light Snow
5:30 AM 23.0 °F 12.4 °F 19.4 °F 86% 29.99 in 4.0 mi West 10.4 mph - 0.00 in Snow Light Snow
5:39 AM 23.0 °F 12.4 °F 19.4 °F 86% 30.00 in 9.0 mi West 10.4 mph - 0.00 in Snow Light Snow
5:53 AM 23.0 °F 14.7 °F 18.0 °F 81% 30.00 in 10.0 mi WNW 6.9 mph - 0.00 in   Overcast
6:53 AM 23.0 °F - 15.1 °F 72% 30.03 in 10.0 mi Calm Calm - N/A   Overcast
7:53 AM 21.9 °F - 12.9 °F 68% 30.08 in 10.0 mi Calm Calm - N/A   Overcast
8:53 AM 21.9 °F - 10.9 °F 63% 30.10 in 10.0 mi Calm Calm - N/A   Scattered Clouds
9:53 AM 21.0 °F 12.4 °F 10.0 °F 63% 30.13 in 10.0 mi WNW 6.9 mph - N/A   Partly Cloudy
10:53 AM 24.1 °F 15.2 °F 9.0 °F 53% 30.13 in 10.0 mi West 8.1 mph - N/A   Clear
11:53 AM 25.0 °F 13.1 °F 8.1 °F 49% 30.12 in 10.0 mi NW 13.8 mph - N/A   Clear
12:53 PM 26.1 °F 13.1 °F 6.1 °F 43% 30.12 in 10.0 mi WNW 17.3 mph - N/A   Clear
1:53 PM 26.1 °F 13.1 °F 6.1 °F 43% 30.12 in 10.0 mi WNW 17.3 mph 29.9 mph N/A   Mostly Cloudy
2:53 PM 27.0 °F 12.2 °F 5.0 °F 39% 30.15 in 10.0 mi WNW 24.2 mph 28.8 mph N/A   Partly Cloudy
3:53 PM 27.0 °F 13.5 °F 3.0 °F 36% 30.19 in 10.0 mi WNW 19.6 mph - N/A   Scattered Clouds
4:53 PM 24.1 °F 12.0 °F 3.9 °F 42% 30.23 in 10.0 mi NW 13.8 mph - N/A   Overcast
5:53 PM 21.0 °F 10.6 °F 1.0 °F 42% 30.27 in 10.0 mi NW 9.2 mph - N/A   Clear
6:53 PM 16.0 °F 7.4 °F 3.9 °F 59% 30.32 in 10.0 mi SE 5.8 mph - N/A   Clear
7:53 PM 12.9 °F 0.7 °F 3.9 °F 67% 30.36 in 10.0 mi SSE 9.2 mph - N/A   Clear
8:53 PM 12.0 °F -0.4 °F 3.0 °F 67% 30.37 in 10.0 mi ESE 9.2 mph - N/A   Clear
9:53 PM 10.9 °F -2.6 °F 3.0 °F 70% 30.39 in 10.0 mi SE 10.4 mph - N/A   Clear
10:53 PM 10.9 °F -0.8 °F 1.9 °F 67% 30.37 in 10.0 mi SE 8.1 mph - N/A   Clear
11:53 PM 10.9 °F -1.8 °F 1.9 °F 67% 30.38 in 10.0 mi SE 9.2 mph - N/A   Clear